COSMOS 2251 DEB

Satellite information

Favourite Embed

Satellite Type and Status

DEBRISIN ORBIT

Key statistics

Satellite COSMOS 2251 DEB at a glance.

Uptime

11822

Days in orbit

Revolutions

≈ 14.5

Per day

Orbit

LEO

Low Earth Orbit

Inclination

74.0

Latest

Satellite identification and parameters

Extended collection of information and parameters for COSMOS 2251 DEB.

Object identification

Identified? True

Debris? True

Object name: COSMOS 2251 DEB

International designator: 1993-036APN

Object number (NORAD): 35671

Object ID (CCSDS): 35671

Country: COMMONWEALTH OF INDEPENDENT STATES (CIS)

Current information (Y/N): Y

RCS size: SMALL

Orbital parameters

Period: 99.431 minutes

Inclination: 74.0169 deg

SMA: 7109.549 km

Apoapsis: 760.145 km

Periapsis: 702.684 km

RAAN: 167.1251 deg

Eccentricy: 0.0040411

Argument of periapsis: 350.1571 deg

Mean anomaly: 26.1918 deg

Mean motion: 14.48237084 rev/day

Mean motion (dot): 0.00000857 rev/day2

B* drag term: 0.00023477 1/REarth

Two-line elements (TLE)

Creation date: Oct. 27, 2025, 6:26 a.m.

Reference frame: TEME

Reference center: EARTH

Epoch: Oct. 26, 2025, 9:39 p.m. UTC

TLE line 0: 0 COSMOS 2251 DEB

TLE line 1: 1 35671U 93036APN 25299.90270421 .00000857 00000-0 23477-3 0 9991

TLE line 2: 2 35671 74.0169 167.1251 0040411 350.1571 26.1918 14.48237084860851

Live tracking on map

Real-time ground track for satellite COSMOS 2251 DEB.

In-orbit conjunctions

A list of the most updated potential collisions computed for object COSMOS 2251 DEB.

Target Orbit TCA Probability of collision Miss distance Type
DELTA 1 R/B SSO 2024-11-23 10:46:35 0.0002196657 95.0 (m) ROCKET BODY
COSMOS 44 LEO 2024-10-16 09:18:00 0.0001973212 634.0 (m) PAYLOAD

Associated space launch

Military communications satellite. Destroyed in a collision with Iridium 33.

COSMOS 2251 DEB was lifted into orbit during the mission ‘Kosmos-3M | Strela-2M 51’, on board a Kosmos-3M space rocket.

The launch took place on June 16, 1993, 4:17 a.m. from 132/1 (132L).

For more information about the launch, click the button.

Launch to space Kosmos-3M | Strela-2M 51
Kosmos-3M | Strela-2M 51

Agency: N/A

Status: Launch Successful

Launch date: June 16, 1993, 4:17 a.m. UTC

Rocket: Kosmos-3M

Launch pad: 132/1 (132L)

Location: Plesetsk Cosmodrome, Russian Federation

...

Latest news about this satellite

There are no fresh news available about this satellite. Check back as we update our databases every day.


Newsletter sign-up

Weekly statistics, charts and insights to help you stay on top of the space industry.